Location: Foots Cray
(51.4000°N, 0.1167°E)
Time: 03:39:30
(UTC+00:00)

Meteor 1-11 Rocket - Pass Details

Date: 15 May 2026
Orbit: 829 x 915 km, 81.2° (Epoch: 8 June)

Event Time Altitude Azimuth Distance (km) Brightness Sun altitude
Rises 22:59:29 0° 348° (NNW) 3,461 8.6 -18.5°
Reaches altitude 10° 23:01:59 10° 351° (N) 2,507 7.4 -18.6°
Maximum altitude 23:07:38 66° 74° (ENE) 922 3.8 -18.8°
Enters shadow 23:10:14 32° 147° (SSE) 1,412 4.3 -18.8°
